• In Belarus
  • List of Countries
  • For 7 days
  • Water Temperature
  • Satellite Maps
  • Weather Map
  • Weather Widgets
  • user-avatar
    Login

    Hourly Weather Abovyan

    Today, 23 May, Thursday

    Time Temperature Precipitation Wind Pressure Humidity
    00:00 +16°C° 0 mm 2 mps 673 mmHg 63%
    01:00 +15°C° 0 mm 1 mps 672 mmHg 62%
    02:00 +15°C° 0 mm 1 mps 672 mmHg 62%
    03:00 +14°C° 0 mm 1 mps 671 mmHg 64%
    04:00 +15°C° 0 mm 1 mps 671 mmHg 63%
    05:00 +15°C° 0 mm 1 mps 671 mmHg 62%
    06:00 +16°C° 0 mm 1 mps 671 mmHg 61%
    07:00 +17°C° 0.1 mm 2 mps 671 mmHg 58%
    08:00 +19°C° 0.1 mm 2 mps 671 mmHg 54%
    09:00 +20°C° 0.1 mm 2 mps 671 mmHg 50%
    10:00 +21°C° 0.1 mm 3 mps 671 mmHg 48%
    11:00 +22°C° 0.1 mm 3 mps 671 mmHg 46%
    12:00 +24°C° 0.1 mm 3 mps 671 mmHg 45%
    13:00 +24°C° 0.4 mm 3 mps 671 mmHg 45%
    14:00 +24°C° 0.4 mm 3 mps 671 mmHg 46%
    15:00 +24°C° 0.4 mm 2 mps 671 mmHg 47%
    16:00 +23°C° 0.8 mm 2 mps 671 mmHg 50%
    17:00 +23°C° 0.8 mm 1 mps 670 mmHg 54%
    18:00 +22°C° 0.8 mm 1 mps 670 mmHg 57%
    19:00 +21°C° 0.7 mm 1 mps 671 mmHg 60%
    20:00 +20°C° 0.7 mm 1 mps 671 mmHg 63%
    21:00 +19°C° 0.7 mm 1 mps 671 mmHg 66%
    22:00 +19°C° 0.3 mm 1 mps 671 mmHg 67%
    23:00 +18°C° 0.3 mm 1 mps 671 mmHg 67%

    Tomorrow, 24 May, Friday

    Time Temperature Precipitation Wind Pressure Humidity
    00:00 +18°C° 0.3 mm 1 mps 671 mmHg 68%
    01:00 +18°C° 0.3 mm 1 mps 671 mmHg 69%
    02:00 +18°C° 0.3 mm 1 mps 671 mmHg 70%
    03:00 +16°C° 0.3 mm 2 mps 671 mmHg 72%
    04:00 +17°C° 0.1 mm 2 mps 671 mmHg 71%
    05:00 +17°C° 0.1 mm 2 mps 671 mmHg 70%
    06:00 +17°C° 0.1 mm 2 mps 671 mmHg 69%
    07:00 +19°C° 0.1 mm 2 mps 671 mmHg 63%
    08:00 +20°C° 0.1 mm 2 mps 671 mmHg 57%
    09:00 +22°C° 0.1 mm 3 mps 671 mmHg 52%
    10:00 +24°C° 0.2 mm 3 mps 671 mmHg 49%
    11:00 +25°C° 0.2 mm 3 mps 671 mmHg 47%
    12:00 +26°C° 0.2 mm 3 mps 671 mmHg 45%
    13:00 +27°C° 0.6 mm 3 mps 671 mmHg 43%
    14:00 +27°C° 0.6 mm 3 mps 671 mmHg 42%
    15:00 +28°C° 0.6 mm 3 mps 671 mmHg 40%
    16:00 +27°C° 0.8 mm 2 mps 671 mmHg 42%
    17:00 +27°C° 0.8 mm 2 mps 671 mmHg 44%
    18:00 +27°C° 0.8 mm 1 mps 671 mmHg 46%
    19:00 +25°C° 0.5 mm 2 mps 672 mmHg 49%
    20:00 +22°C° 0.5 mm 3 mps 672 mmHg 53%
    21:00 +20°C° 0.5 mm 4 mps 673 mmHg 56%
    22:00 +20°C° 0.3 mm 3 mps 673 mmHg 57%
    23:00 +19°C° 0.3 mm 3 mps 673 mmHg 59%

    Day after tomorrow, 25 May, Saturday

    Time Temperature Precipitation Wind Pressure Humidity
    00:00 +19°C° 0.3 mm 2 mps 673 mmHg 60%
    01:00 +18°C° 0.1 mm 2 mps 673 mmHg 59%
    02:00 +18°C° 0.1 mm 2 mps 672 mmHg 58%
    03:00 +18°C° 0.1 mm 2 mps 672 mmHg 57%
    04:00 +18°C° 0 mm 2 mps 672 mmHg 54%
    05:00 +19°C° 0 mm 2 mps 673 mmHg 52%
    06:00 +19°C° 0 mm 2 mps 673 mmHg 50%
    07:00 +21°C° 0 mm 2 mps 673 mmHg 44%
    08:00 +24°C° 0 mm 3 mps 673 mmHg 39%
    09:00 +26°C° 0 mm 3 mps 673 mmHg 33%
    10:00 +27°C° 0 mm 4 mps 673 mmHg 32%
    11:00 +29°C° 0 mm 4 mps 673 mmHg 30%
    12:00 +30°C° 0 mm 5 mps 673 mmHg 28%
    13:00 +30°C° 0.1 mm 5 mps 673 mmHg 28%
    14:00 +30°C° 0.1 mm 4 mps 672 mmHg 28%
    15:00 +30°C° 0.1 mm 4 mps 672 mmHg 28%
    16:00 +29°C° 0.5 mm 4 mps 672 mmHg 32%
    17:00 +28°C° 0.5 mm 3 mps 672 mmHg 37%
    18:00 +27°C° 0.5 mm 2 mps 671 mmHg 41%
    19:00 +25°C° 0.5 mm 2 mps 671 mmHg 43%
    20:00 +22°C° 0.5 mm 3 mps 671 mmHg 45%
    21:00 +21°C° 0.5 mm 3 mps 671 mmHg 46%
    22:00 +20°C° 0.2 mm 2 mps 671 mmHg 46%
    23:00 +19°C° 0.2 mm 2 mps 671 mmHg 46%

    26 May, Sunday

    Time Temperature Precipitation Wind Pressure Humidity
    00:00 +19°C° 0.2 mm 2 mps 671 mmHg 46%
    01:00 +19°C° 0.1 mm 2 mps 671 mmHg 46%
    02:00 +18°C° 0.1 mm 2 mps 671 mmHg 46%
    03:00 +18°C° 0.1 mm 2 mps 670 mmHg 46%
    04:00 +18°C° 0 mm 2 mps 671 mmHg 46%
    05:00 +19°C° 0 mm 2 mps 671 mmHg 47%
    06:00 +19°C° 0 mm 2 mps 671 mmHg 48%
    07:00 +21°C° 0 mm 2 mps 671 mmHg 44%
    08:00 +24°C° 0 mm 2 mps 671 mmHg 40%
    09:00 +26°C° 0 mm 2 mps 671 mmHg 37%
    10:00 +27°C° 0.1 mm 2 mps 671 mmHg 36%
    11:00 +27°C° 0.1 mm 3 mps 671 mmHg 34%
    12:00 +28°C° 0.1 mm 4 mps 671 mmHg 33%
    13:00 +29°C° 0 mm 4 mps 671 mmHg 31%
    14:00 +29°C° 0 mm 3 mps 671 mmHg 29%
    15:00 +30°C° 0 mm 3 mps 671 mmHg 27%
    16:00 +29°C° 0 mm 3 mps 671 mmHg 29%
    17:00 +28°C° 0 mm 3 mps 671 mmHg 31%
    18:00 +27°C° 0 mm 2 mps 671 mmHg 33%
    19:00 +25°C° 0.2 mm 3 mps 672 mmHg 39%
    20:00 +22°C° 0.2 mm 4 mps 672 mmHg 45%
    21:00 +19°C° 0.2 mm 4 mps 673 mmHg 50%
    22:00 +18°C° 0.1 mm 4 mps 673 mmHg 54%
    23:00 +18°C° 0.1 mm 3 mps 673 mmHg 57%

    27 May, Monday

    Time Temperature Precipitation Wind Pressure Humidity
    00:00 +17°C° 0.1 mm 3 mps 673 mmHg 60%
    01:00 +16°C° 0 mm 3 mps 673 mmHg 60%
    02:00 +16°C° 0 mm 2 mps 673 mmHg 61%
    03:00 +15°C° 0 mm 2 mps 673 mmHg 61%
    04:00 +16°C° 0 mm 2 mps 673 mmHg 59%
    05:00 +17°C° 0 mm 2 mps 673 mmHg 58%
    06:00 +18°C° 0 mm 1 mps 674 mmHg 56%
    07:00 +20°C° 0 mm 1 mps 674 mmHg 49%
    08:00 +21°C° 0 mm 2 mps 674 mmHg 42%
    09:00 +23°C° 0 mm 2 mps 675 mmHg 35%
    10:00 +24°C° 0 mm 2 mps 675 mmHg 33%
    11:00 +26°C° 0 mm 2 mps 675 mmHg 31%
    12:00 +27°C° 0 mm 2 mps 675 mmHg 29%
    13:00 +27°C° 0 mm 2 mps 675 mmHg 28%
    14:00 +28°C° 0 mm 2 mps 674 mmHg 27%
    15:00 +28°C° 0 mm 2 mps 674 mmHg 26%
    16:00 +28°C° 0 mm 2 mps 674 mmHg 29%
    17:00 +28°C° 0 mm 2 mps 675 mmHg 32%
    18:00 +27°C° 0 mm 1 mps 675 mmHg 34%
    19:00 +25°C° 0 mm 2 mps 675 mmHg 41%
    20:00 +22°C° 0 mm 3 mps 675 mmHg 48%
    21:00 +20°C° 0 mm 4 mps 675 mmHg 55%
    22:00 +19°C° 0 mm 3 mps 675 mmHg 58%
    23:00 +18°C° 0 mm 3 mps 675 mmHg 61%

    28 May, Tuesday

    Time Temperature Precipitation Wind Pressure Humidity
    00:00 +18°C° 0 mm 3 mps 675 mmHg 63%
    01:00 +17°C° 0 mm 3 mps 675 mmHg 63%
    02:00 +17°C° 0 mm 3 mps 675 mmHg 63%
    03:00 +17°C° 0 mm 3 mps 675 mmHg 62%
    04:00 +17°C° 0 mm 3 mps 676 mmHg 62%
    05:00 +18°C° 0 mm 2 mps 676 mmHg 61%
    06:00 +18°C° 0 mm 2 mps 677 mmHg 60%
    07:00 +20°C° 0 mm 2 mps 677 mmHg 54%
    08:00 +23°C° 0 mm 1 mps 677 mmHg 48%
    09:00 +25°C° 0 mm 1 mps 677 mmHg 42%
    10:00 +26°C° 0 mm 1 mps 677 mmHg 38%
    11:00 +27°C° 0 mm 2 mps 677 mmHg 35%
    12:00 +28°C° 0 mm 2 mps 676 mmHg 32%
    13:00 +29°C° 0 mm 2 mps 676 mmHg 31%
    14:00 +29°C° 0 mm 2 mps 676 mmHg 30%
    15:00 +30°C° 0 mm 2 mps 676 mmHg 29%
    16:00 +29°C° 0.1 mm 2 mps 676 mmHg 32%
    17:00 +29°C° 0.1 mm 2 mps 676 mmHg 36%
    18:00 +28°C° 0.1 mm 2 mps 676 mmHg 39%
    19:00 +26°C° 0.2 mm 2 mps 676 mmHg 48%
    20:00 +24°C° 0.2 mm 2 mps 676 mmHg 56%
    21:00 +20°C° 0.2 mm 3 mps 676 mmHg 64%
    22:00 +20°C° 0 mm 3 mps 676 mmHg 67%
    23:00 +19°C° 0 mm 3 mps 676 mmHg 70%
    Show more